Weather History for PASC - February, 2012

Change the Weather History Date:

Wednesday, February 22, 2012

  Actual Average Record
Temperature  
Mean Temperature -12 °F -  
Max Temperature -6 °F -9 °F 15 °F (2008)
Min Temperature -17 °F -20 °F -45 °F (1991)
Degree Days  
Heating Degree Days 76    
Moisture  
Dew Point -16 °F    
Average Humidity 81    
Maximum Humidity 86    
Minimum Humidity 75    
Precipitation  
Precipitation 0.00 in - - ()
Sea Level Pressure  
Sea Level Pressure 29.98 in    
Wind  
Wind Speed 7 mph (ESE)    
Max Wind Speed 14 mph    
Max Gust Speed -    
Visibility 7 miles    
Events Snow    
Averages and records for this station are not official NWS values.
T = Trace of Precipitation, MM = Missing Value Source: NWS Daily Summary

Daily Weather History Graph

Daily Weather History Graph

Search for Another Location

Airport or City:

Trip Planner

Search our weather history database for the weather conditions in past years. The results will help you decide how hot, cold, wet, or windy it might be!

Date:

Astronomy

Feb. 22, 2012 Rise Set
Actual Time 8:56 AM AKST 5:20 PM AKST
Civil Twilight 7:50 AM AKST 6:25 PM AKST
Nautical Twilight 6:39 AM AKST 7:37 PM AKST
Astronomical Twilight 5:27 AM AKST 8:50 PM AKST
Moon 7:59 AM AKST (2/22) 7:54 PM AKST (2/22)
Length of Visible Light 10h 35m
Length of Day
8h 24m
New Moon, 1% of the Moon is Illuminated
Feb 22
New Moon
Feb 29
First Quarter
Mar 8
Full
Mar 14
Last Quarter
Mar 22
New

Hourly Weather History & Observations

Time (AKST) Temp. Windchill Dew Point Humidity Pressure Visibility Wind Dir Wind Speed Gust Speed Precip Events Conditions
12:53 AM -6.0 °F -25.5 °F -9.9 °F 83% 29.83 in 10.0 mi NE 12.7 mph - N/A   Overcast
1:53 AM -6.0 °F -26.3 °F -9.9 °F 83% 29.84 in 10.0 mi NE 13.8 mph - N/A   Overcast
2:53 AM -6.0 °F -24.6 °F -9.9 °F 83% 29.85 in 10.0 mi NE 11.5 mph - N/A   Overcast
3:53 AM -6.0 °F -23.6 °F -9.9 °F 83% 29.85 in 10.0 mi NE 10.4 mph - N/A   Overcast
4:53 AM -6.0 °F -21.5 °F -9.9 °F 83% 29.87 in 8.0 mi ENE 8.1 mph - N/A   Overcast
5:53 AM -6.0 °F -21.5 °F -9.9 °F 83% 29.88 in 9.0 mi ENE 8.1 mph - N/A Snow Light Snow
6:53 AM -7.1 °F -15.9 °F -11.0 °F 83% 29.89 in 9.0 mi East 3.5 mph - N/A   Overcast
7:53 AM -9.0 °F -18.2 °F -13.0 °F 83% 29.91 in 10.0 mi East 3.5 mph - N/A   Mostly Cloudy
8:39 AM -11.2 °F -20.6 °F -16.6 °F 77% 29.91 in 10.0 mi Variable 3.5 mph - N/A   Overcast
8:53 AM -17.0 °F -31.7 °F -20.9 °F 82% 29.92 in 10.0 mi SW 5.8 mph - N/A   Overcast
9:53 AM -17.0 °F -27.2 °F -22.0 °F 78% 29.94 in 9.0 mi SW 3.5 mph - N/A   Overcast
10:53 AM -15.0 °F -25.0 °F -18.9 °F 82% 29.96 in 7.0 mi SW 3.5 mph - N/A   Overcast
11:53 AM -13.0 °F - -17.0 °F 82% 29.98 in 5.0 mi Calm Calm - N/A   Overcast
12:53 PM -11.9 °F - -15.0 °F 86% 29.99 in 4.0 mi Calm Calm - N/A Snow Light Snow
1:53 PM -11.0 °F - -15.0 °F 83% 30.01 in 9.0 mi Calm Calm - N/A   Overcast
2:53 PM -11.9 °F - -16.1 °F 82% 30.02 in 5.0 mi Calm Calm - N/A Snow Light Snow
3:27 PM -11.2 °F -20.6 °F -14.8 °F 84% 30.02 in 3.0 mi East 3.5 mph - N/A Snow Light Snow
3:35 PM -11.2 °F -20.6 °F -14.8 °F 84% 30.02 in 3.0 mi ESE 3.5 mph - N/A Snow Light Snow
3:43 PM -11.2 °F -20.6 °F -14.8 °F 84% 30.02 in 1.8 mi ESE 3.5 mph - N/A Snow Light Snow
3:53 PM -11.0 °F -20.4 °F -15.0 °F 83% 30.04 in 3.0 mi ESE 3.5 mph - N/A Snow Light Snow
4:53 PM -11.9 °F -23.8 °F -17.0 °F 78% 30.05 in 3.0 mi SE 4.6 mph - N/A Snow Light Snow
5:53 PM -13.0 °F -25.1 °F -18.9 °F 75% 30.06 in 3.0 mi ESE 4.6 mph - N/A Snow Light Snow
6:53 PM -14.1 °F -26.3 °F -18.0 °F 82% 30.07 in 5.0 mi ESE 4.6 mph - N/A Snow Light Snow
7:53 PM -13.0 °F -25.1 °F -17.0 °F 82% 30.08 in 9.0 mi East 4.6 mph - N/A Snow Light Snow
8:53 PM -13.0 °F -22.7 °F -18.0 °F 78% 30.10 in 4.0 mi SE 3.5 mph - N/A Snow Light Snow
9:53 PM -15.0 °F -25.0 °F -20.0 °F 78% 30.11 in 8.0 mi SSE 3.5 mph - N/A Snow Light Snow
10:53 PM -16.1 °F - -20.9 °F 79% 30.13 in 9.0 mi Calm Calm - N/A Snow Light Snow
11:53 PM -16.1 °F -26.2 °F -20.9 °F 79% 30.14 in 7.0 mi SW 3.5 mph - N/A Snow Light Snow